| time (UTC) | temp F | wind direction | speed MPH | gust MPH | rain 1hr in | rain 24hr in | rain mn in | humidity % | barometer mb |
| 20260509111204 | 55 | 266 | 1.0 | 3.0 | 0.00 | 0.00 | 0.00 | 92 | 1008.4 |
| 20260509110704 | 55 | 264 | 0.0 | 1.0 | 0.00 | 0.00 | 0.00 | 91 | 1008.3 |
| 20260509105703 | 56 | 273 | 2.0 | 3.0 | 0.00 | 0.00 | 0.00 | 91 | 1008.2 |
| 20260509105203 | 56 | 268 | 2.0 | 3.0 | 0.00 | 0.00 | 0.00 | 91 | 1008.2 |
| 20260509104703 | 56 | 276 | 1.0 | 3.0 | 0.00 | 0.00 | 0.00 | 91 | 1008.2 |
| 20260509104204 | 56 | 272 | 1.0 | 3.0 | 0.00 | 0.00 | 0.00 | 91 | 1008.2 |
| 20260509103204 | 56 | 269 | 1.0 | 1.0 | 0.00 | 0.00 | 0.00 | 90 | 1008.3 |
| 20260509102704 | 56 | 284 | 0.0 | 2.0 | 0.00 | 0.00 | 0.00 | 89 | 1008.3 |
| 20260509102204 | 57 | 283 | 1.0 | 5.0 | 0.00 | 0.00 | 0.00 | 89 | 1008.3 |
| 20260509101704 | 57 | 269 | 1.0 | 3.0 | 0.00 | 0.00 | 0.00 | 88 | 1008.3 |
| 20260509101203 | 57 | 252 | 1.0 | 3.0 | 0.00 | 0.00 | 0.00 | 88 | 1008.4 |
| 20260509100205 | 57 | 279 | 2.0 | 6.0 | 0.00 | 0.00 | 0.00 | 88 | 1008.4 |
| 20260509095203 | 57 | 275 | 2.0 | 3.0 | 0.00 | 0.00 | 0.00 | 88 | 1008.5 |
| 20260509094704 | 58 | 263 | 1.0 | 5.0 | 0.00 | 0.00 | 0.00 | 87 | 1008.4 |
| 20260509094204 | 58 | 260 | 2.0 | 5.0 | 0.00 | 0.00 | 0.00 | 87 | 1008.4 |
| 20260509093704 | 58 | 260 | 2.0 | 5.0 | 0.00 | 0.00 | 0.00 | 87 | 1008.5 |
| 20260509093203 | 58 | 266 | 2.0 | 6.0 | 0.00 | 0.00 | 0.00 | 87 | 1008.5 |
| 20260509092704 | 58 | 271 | 2.0 | 3.0 | 0.00 | 0.00 | 0.00 | 87 | 1008.5 |
| 20260509092204 | 58 | 274 | 2.0 | 6.0 | 0.00 | 0.00 | 0.00 | 87 | 1008.5 |
| 20260509091704 | 57 | 274 | 2.0 | 3.0 | 0.00 | 0.00 | 0.00 | 88 | 1008.4 |
| 20260509091204 | 57 | 279 | 1.0 | 3.0 | 0.00 | 0.00 | 0.00 | 88 | 1008.6 |
| 20260509090704 | 57 | 266 | 1.0 | 2.0 | 0.00 | 0.00 | 0.00 | 88 | 1008.5 |
| 20260509090204 | 58 | 273 | 0.0 | 1.0 | 0.00 | 0.00 | 0.00 | 88 | 1008.6 |
| 20260509085703 | 58 | 274 | 0.0 | 1.0 | 0.00 | 0.00 | 0.00 | 88 | 1008.6 |
| 20260509085203 | 58 | 281 | 1.0 | 3.0 | 0.00 | 0.00 | 0.00 | 88 | 1008.8 |
| 20260509084704 | 57 | 273 | 2.0 | 7.0 | 0.00 | 0.00 | 0.00 | 89 | 1008.8 |
| 20260509083704 | 57 | 267 | 0.0 | 1.0 | 0.00 | 0.00 | 0.00 | 89 | 1008.9 |
| 20260509083204 | 57 | 247 | 0.0 | 0.0 | 0.00 | 0.00 | 0.00 | 89 | 1008.9 |
| 20260509082704 | 57 | 210 | 0.0 | 0.0 | 0.00 | 0.00 | 0.00 | 89 | 1008.9 |
| 20260509082204 | 57 | 210 | 0.0 | 0.0 | 0.00 | 0.00 | 0.00 | 89 | 1008.8 |
| 20260509081704 | 57 | 209 | 0.0 | 0.0 | 0.00 | 0.00 | 0.00 | 88 | 1008.8 |
| 20260509081204 | 58 | 243 | 0.0 | 0.0 | 0.00 | 0.00 | 0.00 | 88 | 1008.7 |
| 20260509080704 | 58 | 243 | 1.0 | 2.0 | 0.00 | 0.00 | 0.00 | 87 | 1008.7 |
| 20260509080204 | 58 | 202 | 1.0 | 3.0 | 0.00 | 0.00 | 0.00 | 87 | 1008.7 |
| 20260509075704 | 58 | 211 | 0.0 | 2.0 | 0.00 | 0.00 | 0.00 | 87 | 1008.7 |
| 20260509075204 | 59 | 217 | 1.0 | 2.0 | 0.00 | 0.00 | 0.00 | 86 | 1008.6 |
| 20260509074703 | 59 | 222 | 1.0 | 2.0 | 0.00 | 0.00 | 0.00 | 86 | 1008.4 |
| 20260509073704 | 59 | 257 | 1.0 | 3.0 | 0.00 | 0.00 | 0.00 | 85 | 1008.4 |
| 20260509073204 | 59 | 270 | 1.0 | 3.0 | 0.00 | 0.00 | 0.00 | 85 | 1008.4 |
| 20260509072704 | 59 | 271 | 1.0 | 3.0 | 0.00 | 0.00 | 0.00 | 85 | 1008.3 |
| 20260509071703 | 59 | 268 | 1.0 | 3.0 | 0.00 | 0.00 | 0.00 | 85 | 1008.4 |
| 20260509071204 | 59 | 273 | 2.0 | 3.0 | 0.00 | 0.00 | 0.00 | 86 | 1008.4 |
| 20260509070704 | 59 | 273 | 1.0 | 3.0 | 0.00 | 0.00 | 0.00 | 85 | 1008.5 |
| 20260509070203 | 59 | 276 | 0.0 | 2.0 | 0.00 | 0.00 | 0.00 | 85 | 1008.4 |
| 20260509065204 | 60 | 269 | 1.0 | 5.0 | 0.00 | 0.00 | 0.00 | 85 | 1008.5 |
| 20260509064704 | 60 | 282 | 2.0 | 3.0 | 0.00 | 0.00 | 0.00 | 85 | 1008.5 |
| 20260509063704 | 59 | 276 | 0.0 | 2.0 | 0.00 | 0.00 | 0.00 | 87 | 1008.6 |
| 20260509063204 | 59 | 273 | 1.0 | 3.0 | 0.00 | 0.00 | 0.00 | 88 | 1008.6 |
| 20260509062704 | 58 | 278 | 0.0 | 0.0 | 0.00 | 0.00 | 0.00 | 88 | 1008.7 |
| 20260509062204 | 58 | 207 | 0.0 | 0.0 | 0.00 | 0.00 | 0.00 | 87 | 1008.7 |
| 20260509061704 | 58 | 206 | 0.0 | 0.0 | 0.00 | 0.00 | 0.00 | 87 | 1008.7 |
| 20260509061204 | 58 | 206 | 0.0 | 0.0 | 0.00 | 0.00 | 0.00 | 87 | 1008.7 |
| 20260509060703 | 59 | 206 | 0.0 | 0.0 | 0.00 | 0.00 | 0.00 | 86 | 1008.7 |
| 20260509060203 | 59 | 206 | 0.0 | 0.0 | 0.00 | 0.00 | 0.00 | 87 | 1008.7 |
| 20260509055204 | 59 | 240 | 0.0 | 0.0 | 0.00 | 0.00 | 0.00 | 86 | 1008.8 |
| 20260509054703 | 59 | 240 | 0.0 | 1.0 | 0.00 | 0.00 | 0.00 | 86 | 1008.8 |
| 20260509054204 | 59 | 203 | 1.0 | 2.0 | 0.00 | 0.00 | 0.00 | 86 | 1008.9 |
| 20260509053704 | 59 | 203 | 0.0 | 2.0 | 0.00 | 0.00 | 0.00 | 86 | 1008.9 |
| 20260509052704 | 59 | 198 | 1.0 | 2.0 | 0.00 | 0.00 | 0.00 | 85 | 1008.9 |
| 20260509052203 | 60 | 191 | 0.0 | 1.0 | 0.00 | 0.00 | 0.00 | 84 | 1008.8 |
| 20260509051203 | 60 | 236 | 0.0 | 0.0 | 0.00 | 0.00 | 0.00 | 83 | 1009.0 |
| 20260509045704 | 61 | 206 | 0.0 | 1.0 | 0.00 | 0.00 | 0.00 | 81 | 1009.0 |
| 20260509045204 | 61 | 208 | 0.0 | 0.0 | 0.00 | 0.00 | 0.00 | 81 | 1009.1 |
| 20260509044704 | 62 | 280 | 0.0 | 0.0 | 0.00 | 0.00 | 0.00 | 80 | 1009.1 |
| 20260509044204 | 62 | 280 | 0.0 | 0.0 | 0.00 | 0.00 | 0.00 | 78 | 1009.0 |
| 20260509043704 | 63 | 279 | 0.0 | 0.0 | 0.00 | 0.00 | 0.00 | 78 | 1009.2 |
| 20260509043204 | 63 | 280 | 0.0 | 0.0 | 0.00 | 0.00 | 0.00 | 77 | 1009.1 |
| 20260509041704 | 64 | 359 | 0.0 | 2.0 | 0.00 | 0.00 | 0.00 | 74 | 1009.0 |
| 20260509040204 | 65 | 281 | 1.0 | 5.0 | 0.00 | 0.00 | 0.00 | 72 | 1008.9 |
| 20260509035204 | 66 | 301 | 1.0 | 3.0 | 0.00 | 0.00 | 0.00 | 69 | 1008.9 |
| 20260509034204 | 67 | 274 | 1.0 | 6.0 | 0.00 | 0.00 | 0.00 | 66 | 1008.7 |
| 20260509033704 | 67 | 293 | 2.0 | 5.0 | 0.00 | 0.00 | 0.00 | 66 | 1008.6 |
| 20260509033204 | 67 | 315 | 2.0 | 3.0 | 0.00 | 0.00 | 0.00 | 65 | 1008.5 |
| 20260509032704 | 67 | 261 | 3.0 | 8.0 | 0.00 | 0.00 | 0.00 | 64 | 1008.6 |
| 20260509032204 | 67 | 280 | 3.0 | 12.0 | 0.00 | 0.00 | 0.00 | 63 | 1008.2 |
| 20260509031204 | 68 | 263 | 2.0 | 5.0 | 0.00 | 0.00 | 0.00 | 62 | 1007.6 |
| 20260509030704 | 68 | 253 | 2.0 | 6.0 | 0.00 | 0.00 | 0.00 | 62 | 1007.5 |
| 20260509030203 | 68 | 259 | 2.0 | 5.0 | 0.00 | 0.00 | 0.00 | 63 | 1007.4 |
| 20260509025703 | 68 | 258 | 3.0 | 5.0 | 0.00 | 0.00 | 0.00 | 62 | 1007.3 |
| 20260509025204 | 68 | 245 | 3.0 | 9.0 | 0.00 | 0.00 | 0.00 | 63 | 1007.2 |
| 20260509024203 | 68 | 234 | 4.0 | 12.0 | 0.00 | 0.00 | 0.00 | 63 | 1007.1 |
| 20260509023704 | 68 | 211 | 3.0 | 8.0 | 0.00 | 0.00 | 0.00 | 64 | 1006.9 |
| 20260509023204 | 68 | 237 | 3.0 | 12.0 | 0.00 | 0.00 | 0.00 | 64 | 1006.8 |
| 20260509022704 | 68 | 239 | 3.0 | 6.0 | 0.00 | 0.00 | 0.00 | 65 | 1006.8 |
| 20260509022204 | 68 | 193 | 3.0 | 7.0 | 0.00 | 0.00 | 0.00 | 65 | 1006.7 |
| 20260509021703 | 68 | 221 | 4.0 | 12.0 | 0.00 | 0.00 | 0.00 | 66 | 1006.8 |
| 20260509021203 | 68 | 209 | 3.0 | 7.0 | 0.00 | 0.00 | 0.00 | 66 | 1006.8 |
| 20260509020203 | 68 | 208 | 3.0 | 6.0 | 0.00 | 0.00 | 0.00 | 65 | 1006.4 |
| 20260509015704 | 68 | 216 | 4.0 | 8.0 | 0.00 | 0.00 | 0.00 | 65 | 1006.3 |
| 20260509015204 | 68 | 203 | 3.0 | 9.0 | 0.00 | 0.00 | 0.00 | 65 | 1006.3 |
| 20260509014704 | 68 | 199 | 5.0 | 10.0 | 0.00 | 0.00 | 0.00 | 66 | 1006.5 |
| 20260509014204 | 67 | 197 | 4.0 | 12.0 | 0.00 | 0.00 | 0.00 | 66 | 1006.2 |
| 20260509013203 | 67 | 203 | 2.0 | 5.0 | 0.00 | 0.00 | 0.00 | 65 | 1005.8 |
| 20260509012704 | 68 | 252 | 2.0 | 6.0 | 0.00 | 0.00 | 0.00 | 64 | 1005.5 |
| 20260509012204 | 68 | 151 | 3.0 | 5.0 | 0.00 | 0.00 | 0.00 | 63 | 1005.8 |
| 20260509011704 | 68 | 137 | 3.0 | 6.0 | 0.00 | 0.00 | 0.00 | 63 | 1006.3 |
| 20260509011204 | 67 | 158 | 1.0 | 3.0 | 0.00 | 0.00 | 0.00 | 63 | 1006.6 |
| 20260509010703 | 67 | 198 | 0.0 | 0.0 | 0.00 | 0.00 | 0.00 | 64 | 1006.9 |
| 20260509010203 | 68 | 202 | 0.0 | 0.0 | 0.00 | 0.00 | 0.00 | 65 | 1006.9 |
| 20260509005703 | 68 | 202 | 0.0 | 0.0 | 0.00 | 0.00 | 0.00 | 66 | 1006.8 |
| 20260509005203 | 68 | 202 | 0.0 | 0.0 | 0.00 | 0.00 | 0.00 | 64 | 1006.7 |
| 20260509004204 | 69 | 203 | 0.0 | 0.0 | 0.00 | 0.00 | 0.00 | 62 | 1006.5 |
| 20260509003704 | 69 | 203 | 0.0 | 0.0 | 0.00 | 0.00 | 0.00 | 61 | 1006.3 |
| 20260509003204 | 69 | 257 | 0.0 | 0.0 | 0.00 | 0.00 | 0.00 | 59 | 1006.3 |
| 20260509002704 | 70 | 257 | 0.0 | 1.0 | 0.00 | 0.00 | 0.00 | 58 | 1006.3 |
| 20260509002204 | 70 | 257 | 0.0 | 2.0 | 0.00 | 0.00 | 0.00 | 60 | 1006.3 |
| 20260509001703 | 71 | 243 | 1.0 | 2.0 | 0.00 | 0.00 | 0.00 | 55 | 1005.9 |
| 20260509000704 | 71 | 96 | 0.0 | 0.0 | 0.00 | 0.00 | 0.00 | 56 | 1005.8 |
| 20260509000204 | 71 | 120 | 0.0 | 0.0 | 0.00 | 0.00 | 0.00 | 54 | 1006.2 |
| 20260508235703 | 72 | 93 | 0.0 | 1.0 | 0.00 | 0.00 | 0.00 | 56 | 1006.3 |
| 20260508235203 | 72 | 106 | 0.0 | 1.0 | 0.00 | 0.00 | 0.00 | 53 | 1006.6 |
| 20260508234703 | 72 | 240 | 1.0 | 3.0 | 0.00 | 0.00 | 0.00 | 50 | 1007.1 |
| 20260508234203 | 72 | 268 | 2.0 | 3.0 | 0.00 | 0.00 | 0.00 | 51 | 1007.3 |
| 20260508233704 | 73 | 257 | 1.0 | 3.0 | 0.00 | 0.00 | 0.00 | 52 | 1007.4 |
| 20260508233204 | 73 | 264 | 1.0 | 3.0 | 0.00 | 0.00 | 0.00 | 52 | 1007.4 |
| 20260508232203 | 73 | 262 | 1.0 | 8.0 | 0.00 | 0.00 | 0.00 | 51 | 1007.5 |
| 20260508231703 | 74 | 246 | 0.0 | 1.0 | 0.00 | 0.00 | 0.00 | 53 | 1007.3 |
| 20260508231203 | 74 | 239 | 0.0 | 1.0 | 0.00 | 0.00 | 0.00 | 51 | 1007.1 |
| 20260508230704 | 74 | 195 | 0.0 | 1.0 | 0.00 | 0.00 | 0.00 | 50 | 1007.1 |
| 20260508230204 | 75 | 165 | 1.0 | 3.0 | 0.00 | 0.00 | 0.00 | 48 | 1007.0 |
| 20260508225704 | 75 | 187 | 2.0 | 5.0 | 0.00 | 0.00 | 0.00 | 47 | 1007.0 |
| 20260508225204 | 75 | 181 | 1.0 | 3.0 | 0.00 | 0.00 | 0.00 | 47 | 1006.9 |
| 20260508224704 | 76 | 183 | 1.0 | 3.0 | 0.00 | 0.00 | 0.00 | 47 | 1006.9 |
| 20260508224203 | 76 | 235 | 1.0 | 5.0 | 0.00 | 0.00 | 0.00 | 46 | 1007.0 |
| 20260508223703 | 76 | 228 | 1.0 | 5.0 | 0.00 | 0.00 | 0.00 | 47 | 1006.9 |
| 20260508223203 | 77 | 220 | 2.0 | 5.0 | 0.00 | 0.00 | 0.00 | 44 | 1006.8 |
| 20260508222703 | 78 | 241 | 1.0 | 9.0 | 0.00 | 0.00 | 0.00 | 44 | 1006.8 |
| 20260508222203 | 78 | 215 | 3.0 | 6.0 | 0.00 | 0.00 | 0.00 | 43 | 1006.7 |
| 20260508221703 | 78 | 184 | 3.0 | 7.0 | 0.00 | 0.00 | 0.00 | 44 | 1006.6 |
| 20260508215704 | 79 | 208 | 5.0 | 14.0 | 0.00 | 0.00 | 0.00 | 42 | 1006.6 |
| 20260508215204 | 79 | 184 | 3.0 | 12.0 | 0.00 | 0.00 | 0.00 | 42 | 1006.6 |
| 20260508214704 | 79 | 205 | 3.0 | 12.0 | 0.00 | 0.00 | 0.00 | 43 | 1006.6 |
| 20260508214204 | 79 | 196 | 3.0 | 9.0 | 0.00 | 0.00 | 0.00 | 44 | 1006.6 |
| 20260508213704 | 79 | 238 | 5.0 | 12.0 | 0.00 | 0.00 | 0.00 | 43 | 1006.7 |
| 20260508213204 | 79 | 193 | 5.0 | 13.0 | 0.00 | 0.00 | 0.00 | 42 | 1006.8 |
| 20260508212704 | 79 | 204 | 3.0 | 10.0 | 0.00 | 0.00 | 0.00 | 44 | 1006.7 |
| 20260508212204 | 79 | 101 | 2.0 | 12.0 | 0.00 | 0.00 | 0.00 | 46 | 1006.8 |
| 20260508211703 | 79 | 197 | 2.0 | 12.0 | 0.00 | 0.00 | 0.00 | 46 | 1007.0 |
| 20260508210703 | 78 | 249 | 2.0 | 8.0 | 0.00 | 0.00 | 0.00 | 45 | 1007.1 |
| 20260508210203 | 78 | 213 | 3.0 | 8.0 | 0.00 | 0.00 | 0.00 | 46 | 1007.1 |
| 20260508205704 | 78 | 222 | 3.0 | 9.0 | 0.00 | 0.00 | 0.00 | 47 | 1007.3 |
| 20260508205204 | 78 | 229 | 5.0 | 9.0 | 0.00 | 0.00 | 0.00 | 46 | 1007.5 |
| 20260508204704 | 78 | 233 | 2.0 | 5.0 | 0.00 | 0.00 | 0.00 | 46 | 1007.6 |
| 20260508204204 | 78 | 184 | 3.0 | 9.0 | 0.00 | 0.00 | 0.00 | 47 | 1007.7 |
| 20260508203704 | 78 | 253 | 3.0 | 7.0 | 0.00 | 0.00 | 0.00 | 46 | 1007.8 |
| 20260508202703 | 78 | 165 | 5.0 | 12.0 | 0.00 | 0.00 | 0.00 | 47 | 1008.0 |
| 20260508202203 | 78 | 202 | 5.0 | 12.0 | 0.00 | 0.00 | 0.00 | 46 | 1008.0 |
| 20260508201703 | 77 | 175 | 1.0 | 6.0 | 0.00 | 0.00 | 0.00 | 49 | 1008.1 |
| 20260508201203 | 78 | 199 | 4.0 | 10.0 | 0.00 | 0.00 | 0.00 | 47 | 1008.1 |
| 20260508200703 | 77 | 221 | 0.0 | 6.0 | 0.00 | 0.00 | 0.00 | 48 | 1008.3 |
| 20260508200203 | 77 | 181 | 2.0 | 6.0 | 0.00 | 0.00 | 0.00 | 48 | 1008.4 |
| 20260508195703 | 76 | 123 | 1.0 | 6.0 | 0.00 | 0.00 | 0.00 | 50 | 1008.5 |
| 20260508195203 | 76 | 160 | 2.0 | 9.0 | 0.00 | 0.00 | 0.00 | 49 | 1008.6 |
| 20260508194704 | 76 | 188 | 3.0 | 8.0 | 0.00 | 0.00 | 0.00 | 49 | 1008.7 |
| 20260508194204 | 75 | 235 | 2.0 | 8.0 | 0.00 | 0.00 | 0.00 | 49 | 1008.7 |
| 20260508193704 | 75 | 237 | 5.0 | 10.0 | 0.00 | 0.00 | 0.00 | 49 | 1008.8 |
| 20260508192704 | 76 | 168 | 1.0 | 6.0 | 0.00 | 0.00 | 0.00 | 51 | 1008.9 |
| 20260508191203 | 75 | 257 | 2.0 | 6.0 | 0.00 | 0.00 | 0.00 | 51 | 1009.1 |
| 20260508190703 | 75 | 198 | 2.0 | 8.0 | 0.00 | 0.00 | 0.00 | 52 | 1009.2 |
| 20260508185203 | 76 | 195 | 3.0 | 10.0 | 0.00 | 0.00 | 0.00 | 48 | 1009.4 |
| 20260508184703 | 76 | 219 | 3.0 | 9.0 | 0.00 | 0.00 | 0.00 | 49 | 1009.5 |
| 20260508184203 | 76 | 212 | 3.0 | 9.0 | 0.00 | 0.00 | 0.00 | 50 | 1009.6 |
| 20260508183704 | 75 | 220 | 2.0 | 8.0 | 0.00 | 0.00 | 0.00 | 51 | 1009.7 |
| 20260508183204 | 75 | 233 | 6.0 | 13.0 | 0.00 | 0.00 | 0.00 | 49 | 1009.9 |
| 20260508182704 | 75 | 182 | 5.0 | 12.0 | 0.00 | 0.00 | 0.00 | 50 | 1010.0 |
| 20260508182204 | 76 | 200 | 2.0 | 10.0 | 0.00 | 0.00 | 0.00 | 50 | 1010.0 |
| 20260508181704 | 75 | 238 | 2.0 | 10.0 | 0.00 | 0.00 | 0.00 | 52 | 1010.0 |
| 20260508181204 | 75 | 247 | 3.0 | 7.0 | 0.00 | 0.00 | 0.00 | 51 | 1010.0 |
| 20260508180703 | 75 | 174 | 0.0 | 12.0 | 0.00 | 0.00 | 0.00 | 56 | 1010.1 |
| 20260508180204 | 75 | 239 | 3.0 | 8.0 | 0.00 | 0.00 | 0.00 | 54 | 1010.3 |
| 20260508175703 | 75 | 195 | 3.0 | 12.0 | 0.00 | 0.00 | 0.00 | 54 | 1010.4 |
| 20260508175204 | 75 | 172 | 3.0 | 12.0 | 0.00 | 0.00 | 0.00 | 53 | 1010.6 |
| 20260508174703 | 74 | 137 | 2.0 | 7.0 | 0.00 | 0.00 | 0.00 | 56 | 1010.6 |
| 20260508174203 | 73 | 130 | 2.0 | 8.0 | 0.00 | 0.00 | 0.00 | 57 | 1010.6 |
| 20260508173204 | 72 | 221 | 4.0 | 9.0 | 0.00 | 0.00 | 0.00 | 57 | 1010.8 |
| 20260508172704 | 73 | 125 | 3.0 | 7.0 | 0.00 | 0.00 | 0.00 | 56 | 1010.9 |
| 20260508172204 | 72 | 148 | 4.0 | 6.0 | 0.00 | 0.00 | 0.00 | 57 | 1011.0 |
| 20260508171704 | 72 | 149 | 2.0 | 7.0 | 0.00 | 0.00 | 0.00 | 59 | 1011.1 |
| 20260508170203 | 71 | 171 | 5.0 | 8.0 | 0.00 | 0.00 | 0.00 | 59 | 1011.5 |
| 20260508165704 | 71 | 220 | 3.0 | 8.0 | 0.00 | 0.00 | 0.00 | 61 | 1011.6 |
| 20260508164704 | 70 | 230 | 4.0 | 7.0 | 0.00 | 0.00 | 0.00 | 60 | 1011.8 |
| 20260508164204 | 70 | 239 | 5.0 | 9.0 | 0.00 | 0.00 | 0.00 | 60 | 1011.8 |
| 20260508163703 | 70 | 211 | 7.0 | 14.0 | 0.00 | 0.00 | 0.00 | 58 | 1011.7 |
| 20260508163204 | 70 | 241 | 3.0 | 12.0 | 0.00 | 0.00 | 0.00 | 61 | 1011.8 |
| 20260508162704 | 69 | 200 | 2.0 | 9.0 | 0.00 | 0.00 | 0.00 | 62 | 1011.8 |
| 20260508162204 | 68 | 213 | 3.0 | 9.0 | 0.00 | 0.00 | 0.00 | 63 | 1011.9 |
| 20260508161703 | 68 | 204 | 6.0 | 16.0 | 0.00 | 0.00 | 0.00 | 62 | 1012.0 |
| 20260508161204 | 68 | 215 | 5.0 | 9.0 | 0.00 | 0.00 | 0.00 | 63 | 1012.1 |
| 20260508160703 | 68 | 150 | 2.0 | 10.0 | 0.00 | 0.00 | 0.00 | 63 | 1012.2 |
| 20260508160204 | 67 | 245 | 2.0 | 7.0 | 0.00 | 0.00 | 0.00 | 66 | 1012.3 |
| 20260508155704 | 67 | 218 | 4.0 | 10.0 | 0.00 | 0.00 | 0.00 | 65 | 1012.4 |
| 20260508155203 | 67 | 177 | 2.0 | 9.0 | 0.00 | 0.00 | 0.00 | 66 | 1012.4 |
| 20260508154703 | 67 | 217 | 5.0 | 12.0 | 0.00 | 0.00 | 0.00 | 64 | 1012.6 |
| 20260508154204 | 66 | 184 | 3.0 | 8.0 | 0.00 | 0.00 | 0.00 | 66 | 1012.6 |
| 20260508153703 | 66 | 158 | 5.0 | 10.0 | 0.00 | 0.00 | 0.00 | 66 | 1012.7 |
| 20260508153204 | 66 | 173 | 6.0 | 12.0 | 0.00 | 0.00 | 0.00 | 65 | 1012.8 |
| 20260508152704 | 65 | 212 | 2.0 | 14.0 | 0.00 | 0.00 | 0.00 | 66 | 1012.8 |
| 20260508152203 | 65 | 200 | 4.0 | 12.0 | 0.00 | 0.00 | 0.00 | 66 | 1012.8 |
| 20260508151703 | 65 | 194 | 3.0 | 12.0 | 0.00 | 0.00 | 0.00 | 67 | 1012.8 |
| 20260508151204 | 65 | 213 | 3.0 | 10.0 | 0.00 | 0.00 | 0.00 | 68 | 1012.9 |
| 20260508150204 | 64 | 208 | 3.0 | 10.0 | 0.00 | 0.00 | 0.00 | 70 | 1012.9 |
| 20260508145704 | 64 | 233 | 3.0 | 9.0 | 0.00 | 0.00 | 0.00 | 70 | 1013.0 |
| 20260508145203 | 63 | 225 | 3.0 | 9.0 | 0.00 | 0.00 | 0.00 | 71 | 1013.0 |
| 20260508144703 | 63 | 227 | 5.0 | 8.0 | 0.00 | 0.00 | 0.00 | 71 | 1013.0 |
| 20260508144204 | 63 | 259 | 2.0 | 5.0 | 0.00 | 0.00 | 0.00 | 73 | 1013.0 |
| 20260508142703 | 61 | 170 | 3.0 | 7.0 | 0.00 | 0.00 | 0.00 | 76 | 1013.0 |
| 20260508142204 | 60 | 225 | 1.0 | 5.0 | 0.00 | 0.00 | 0.00 | 78 | 1013.0 |
| 20260508141704 | 59 | 208 | 0.0 | 3.0 | 0.00 | 0.00 | 0.00 | 78 | 1013.0 |
| 20260508141203 | 59 | 197 | 4.0 | 9.0 | 0.00 | 0.00 | 0.00 | 77 | 1013.1 |
| 20260508140704 | 58 | 199 | 3.0 | 7.0 | 0.00 | 0.00 | 0.00 | 78 | 1013.0 |
| 20260508140203 | 58 | 188 | 3.0 | 7.0 | 0.00 | 0.00 | 0.00 | 78 | 1013.1 |
| 20260508135704 | 57 | 209 | 2.0 | 8.0 | 0.00 | 0.00 | 0.00 | 78 | 1013.2 |
| 20260508135204 | 57 | 172 | 2.0 | 5.0 | 0.00 | 0.00 | 0.00 | 78 | 1013.2 |
| 20260508134704 | 57 | 134 | 2.0 | 5.0 | 0.00 | 0.00 | 0.00 | 79 | 1013.2 |
| 20260508134204 | 57 | 200 | 2.0 | 3.0 | 0.00 | 0.00 | 0.00 | 79 | 1013.3 |
| 20260508132703 | 55 | 188 | 2.0 | 5.0 | 0.00 | 0.00 | 0.00 | 79 | 1013.3 |
| 20260508132203 | 56 | 196 | 2.0 | 5.0 | 0.00 | 0.00 | 0.00 | 79 | 1013.3 |
| 20260508131704 | 56 | 194 | 1.0 | 2.0 | 0.00 | 0.00 | 0.00 | 79 | 1013.3 |
| 20260508131204 | 56 | 204 | 0.0 | 2.0 | 0.00 | 0.00 | 0.00 | 80 | 1013.4 |
| 20260508130703 | 56 | 197 | 0.0 | 0.0 | 0.00 | 0.00 | 0.00 | 83 | 1013.5 |
| 20260508130203 | 55 | 210 | 0.0 | 0.0 | 0.00 | 0.00 | 0.00 | 84 | 1013.5 |
| 20260508125704 | 53 | 225 | 0.0 | 0.0 | 0.00 | 0.00 | 0.00 | 86 | 1013.6 |
| 20260508125204 | 52 | 226 | 0.0 | 2.0 | 0.00 | 0.00 | 0.00 | 86 | 1013.6 |
| 20260508124703 | 52 | 130 | 0.0 | 1.0 | 0.00 | 0.00 | 0.00 | 87 | 1013.5 |
| 20260508124204 | 51 | 74 | 0.0 | 0.0 | 0.00 | 0.00 | 0.00 | 89 | 1013.4 |
| 20260508123704 | 50 | 83 | 0.0 | 2.0 | 0.00 | 0.00 | 0.00 | 89 | 1013.4 |
| 20260508122704 | 49 | 82 | 0.0 | 1.0 | 0.00 | 0.00 | 0.00 | 91 | 1013.3 |
| 20260508122203 | 48 | 86 | 0.0 | 1.0 | 0.00 | 0.00 | 0.00 | 92 | 1013.3 |
| 20260508121703 | 47 | 89 | 0.0 | 1.0 | 0.00 | 0.00 | 0.00 | 93 | 1013.3 |
| 20260508121204 | 47 | 88 | 0.0 | 1.0 | 0.00 | 0.00 | 0.00 | 93 | 1013.2 |
| 20260508120704 | 46 | 84 | 0.0 | 1.0 | 0.00 | 0.00 | 0.00 | 93 | 1013.2 |
| 20260508120204 | 46 | 94 | 0.0 | 1.0 | 0.00 | 0.00 | 0.00 | 94 | 1013.1 |
| 20260508115703 | 46 | 104 | 0.0 | 1.0 | 0.00 | 0.00 | 0.00 | 94 | 1013.1 |
| 20260508115204 | 46 | 123 | 0.0 | 0.0 | 0.00 | 0.00 | 0.00 | 94 | 1013.1 |
| 20260508114703 | 45 | 120 | 0.0 | 1.0 | 0.00 | 0.00 | 0.00 | 94 | 1013.1 |
| 20260508114203 | 45 | 111 | 0.0 | 1.0 | 0.00 | 0.00 | 0.00 | 94 | 1013.1 |
| 20260508113704 | 45 | 111 | 0.0 | 0.0 | 0.00 | 0.00 | 0.00 | 95 | 1013.1 |
| 20260508113204 | 45 | 112 | 0.0 | 1.0 | 0.00 | 0.00 | 0.00 | 95 | 1013.0 |
| 20260508112703 | 45 | 122 | 0.0 | 1.0 | 0.00 | 0.00 | 0.00 | 95 | 1013.0 |
| 20260508112204 | 45 | 123 | 0.0 | 1.0 | 0.00 | 0.00 | 0.00 | 95 | 1012.9 |